Language: 


Des rapports , des résumés tant et plus, au choix de chacun....


Données statistiques de la station
Quotidien Rapport Février 7, 2017 Unités:  Métrique    Anglais   les deux
« Précédent Jour
Suivant Jour »
Quotidien Hebdomadaire Mensuel Annuel Actuel
  Haut: Bas: Moyen:
Température: 7.4 °C 4.6 °C 6 °C
Pt de rosée: 7.2 °C 4.2 °C 5.6 °C
Humidité: 98 % 93 % 97 %
Vitesse du vent: 16.6 km/h 0.0 km/h 4.9 km/h
Rafales: 23.3 km/h - -
Vent:- - SSW
Pression: 1016.8 hPa 1012.1 hPa -
Précipitation: 2.8 mm    
Historical Graphs
 
 
Données statistiques pour Février 7, 2017
Heure Température Point de rosée Pression Vent Vitesse du vent Refales Humidité Pluie (taux horaire)
00:00 5.8 °C 4.7 °C 1015.1 hPa SSE 6.1 km/h 10.1 km/h 93 % 0.0 mm
00:05 5.8 °C 4.7 °C 1015.1 hPa SSE 4.3 km/h 7.6 km/h 93 % 0.0 mm
00:10 5.8 °C 4.7 °C 1015.1 hPa SSE 2.6 km/h 6.1 km/h 93 % 0.0 mm
00:15 5.8 °C 4.7 °C 1015.1 hPa SE 4.0 km/h 5.8 km/h 93 % 0.0 mm
00:20 5.8 °C 4.7 °C 1015.1 hPa SE 3.2 km/h 7.6 km/h 93 % 0.0 mm
00:25 5.8 °C 4.7 °C 1015.1 hPa SSE 4.0 km/h 7.6 km/h 93 % 0.0 mm
00:30 5.8 °C 4.7 °C 1015.1 hPa SSE 5.0 km/h 6.1 km/h 93 % 0.0 mm
00:35 5.7 °C 4.7 °C 1015.1 hPa Calm   5.5 km/h 93 % 0.0 mm
00:40 5.7 °C 4.7 °C 1015.1 hPa South 4.3 km/h 5.0 km/h 93 % 0.0 mm
00:45 5.7 °C 4.7 °C 1015.1 hPa Calm   4.3 km/h 93 % 0.0 mm
00:50 5.7 °C 4.7 °C 1015.1 hPa Calm   4.7 km/h 93 % 0.0 mm
00:55 5.7 °C 4.7 °C 1015.1 hPa Calm   4.7 km/h 93 % 0.0 mm
01:00 5.7 °C 4.7 °C 1015.1 hPa ESE 2.1 km/h 4.3 km/h 93 % 0.0 mm
01:05 5.6 °C 4.6 °C 1015.1 hPa Calm   4.3 km/h 93 % 0.0 mm
01:10 5.6 °C 4.6 °C 1014.1 hPa SE 4.0 km/h 5.8 km/h 93 % 0.0 mm
01:15 5.6 °C 4.6 °C 1014.1 hPa SE 1.4 km/h 6.4 km/h 93 % 0.0 mm
01:20 5.6 °C 4.6 °C 1014.1 hPa SE 2.1 km/h 6.4 km/h 93 % 0.0 mm
01:25 5.6 °C 4.6 °C 1015.1 hPa ESE 2.1 km/h 5.8 km/h 93 % 0.0 mm
01:30 5.6 °C 4.6 °C 1015.1 hPa SE 6.1 km/h 7.9 km/h 93 % 0.0 mm
01:35 5.6 °C 4.6 °C 1015.1 hPa ESE 5.5 km/h 7.9 km/h 93 % 0.0 mm
01:40 5.6 °C 4.6 °C 1015.1 hPa SE 4.7 km/h 10.5 km/h 93 % 0.0 mm
01:45 5.6 °C 4.6 °C 1015.1 hPa SE 9.0 km/h 10.5 km/h 93 % 0.0 mm
01:50 5.6 °C 4.6 °C 1015.1 hPa SE 6.4 km/h 9.0 km/h 93 % 0.0 mm
01:55 5.6 °C 4.6 °C 1015.1 hPa ESE 5.0 km/h 9.3 km/h 93 % 0.0 mm
02:02 5.6 °C 4.6 °C 1015.1 hPa ESE 6.1 km/h 9.0 km/h 93 % 0.0 mm
02:07 5.7 °C 4.7 °C 1016.1 hPa SE 5.0 km/h 9.0 km/h 93 % 0.0 mm
02:12 5.7 °C 4.7 °C 1016.1 hPa SSE 5.0 km/h 9.0 km/h 93 % 0.0 mm
02:17 5.7 °C 4.7 °C 1016.1 hPa SSE 4.7 km/h 7.9 km/h 93 % 0.0 mm
02:22 5.7 °C 4.7 °C 1015.1 hPa SSW 3.2 km/h 6.4 km/h 93 % 0.0 mm
02:27 5.7 °C 4.7 °C 1015.1 hPa SSW 1.4 km/h 6.4 km/h 93 % 0.0 mm
02:32 5.6 °C 4.6 °C 1015.1 hPa Calm   5.5 km/h 93 % 0.0 mm
02:37 5.5 °C 4.6 °C 1015.1 hPa Calm   4.3 km/h 94 % 0.0 mm
02:42 5.5 °C 4.6 °C 1015.1 hPa Calm   7.6 km/h 94 % 0.0 mm
02:47 5.5 °C 4.6 °C 1015.1 hPa Calm   7.6 km/h 94 % 0.0 mm
02:52 5.5 °C 4.6 °C 1015.1 hPa Calm   5.5 km/h 94 % 0.0 mm
02:57 5.4 °C 4.5 °C 1015.1 hPa SSE 2.1 km/h 5.8 km/h 94 % 0.0 mm
03:02 5.4 °C 4.5 °C 1015.1 hPa South 3.5 km/h 5.8 km/h 94 % 0.3 mm
03:07 5.3 °C 4.6 °C 1015.1 hPa Calm   3.5 km/h 95 % 0.3 mm
03:12 5.3 °C 4.6 °C 1015.1 hPa Calm   4.7 km/h 95 % 0.3 mm
03:17 5.3 °C 4.6 °C 1015.1 hPa SSE 1.8 km/h 4.7 km/h 95 % 0.3 mm
03:22 5.2 °C 4.4 °C 1014.1 hPa Calm   5.0 km/h 95 % 0.3 mm
03:27 5.2 °C 4.4 °C 1014.1 hPa Calm   5.0 km/h 95 % 0.3 mm
03:32 5.2 °C 4.4 °C 1014.1 hPa Calm   4.0 km/h 95 % 0.3 mm
03:37 5.2 °C 4.6 °C 1014.1 hPa Calm   4.3 km/h 96 % 0.3 mm
03:42 5.2 °C 4.6 °C 1014.1 hPa SSE 1.4 km/h 6.1 km/h 96 % 0.8 mm
03:47 5.1 °C 4.5 °C 1014.1 hPa SSE 4.7 km/h 6.1 km/h 96 % 0.8 mm
03:52 5.1 °C 4.5 °C 1014.1 hPa SSE 3.2 km/h 7.9 km/h 96 % 0.8 mm
03:57 5.1 °C 4.5 °C 1014.1 hPa SSE 8.7 km/h 8.7 km/h 96 % 0.8 mm
04:02 5.1 °C 4.5 °C 1014.1 hPa SSE 1.8 km/h 8.7 km/h 96 % 0.3 mm
04:07 5.1 °C 4.5 °C 1014.1 hPa SE 7.6 km/h 10.5 km/h 96 % 0.3 mm
04:12 5.1 °C 4.7 °C 1014.1 hPa South 6.4 km/h 14.3 km/h 97 % 0.5 mm
04:17 5.1 °C 4.7 °C 1014.1 hPa SSW 7.2 km/h 14.3 km/h 97 % 0.5 mm
04:22 5.1 °C 4.7 °C 1014.1 hPa SSE 10.8 km/h 13.0 km/h 97 % 0.5 mm
04:27 5.1 °C 4.7 °C 1014.1 hPa SSE 7.9 km/h 12.6 km/h 97 % 0.5 mm
04:32 5.1 °C 4.7 °C 1014.1 hPa Calm   12.6 km/h 97 % 0.5 mm
04:37 5.1 °C 4.7 °C 1014.1 hPa SSE 6.4 km/h 16.9 km/h 97 % 0.8 mm
04:42 5.1 °C 4.7 °C 1014.1 hPa SSE 7.9 km/h 16.9 km/h 97 % 0.5 mm
04:47 5.1 °C 4.7 °C 1014.1 hPa South 9.0 km/h 11.9 km/h 97 % 0.5 mm
04:52 5.0 °C 4.6 °C 1014.1 hPa SSE 7.9 km/h 13.0 km/h 97 % 0.5 mm
04:57 4.9 °C 4.4 °C 1014.1 hPa SE 7.9 km/h 13.0 km/h 97 % 0.8 mm
05:02 4.8 °C 4.4 °C 1014.1 hPa SSE 9.3 km/h 12.2 km/h 97 % 0.8 mm
05:07 4.7 °C 4.3 °C 1013.1 hPa SSE 6.4 km/h 12.2 km/h 97 % 0.8 mm
05:12 4.7 °C 4.3 °C 1013.1 hPa SSE 5.5 km/h 12.6 km/h 97 % 0.5 mm
05:17 4.7 °C 4.3 °C 1013.1 hPa SSW 4.3 km/h 13.7 km/h 97 % 0.5 mm
05:22 4.7 °C 4.3 °C 1014.1 hPa SSE 5.8 km/h 13.7 km/h 97 % 0.5 mm
05:27 4.7 °C 4.3 °C 1014.1 hPa South 4.3 km/h 13.0 km/h 97 % 0.8 mm
05:32 4.7 °C 4.3 °C 1014.1 hPa SSE 10.1 km/h 14.0 km/h 97 % 0.8 mm
05:37 4.7 °C 4.3 °C 1014.1 hPa SSE 7.2 km/h 14.0 km/h 97 % 0.5 mm
05:42 4.7 °C 4.3 °C 1014.1 hPa SSE 5.0 km/h 16.9 km/h 97 % 0.5 mm
05:47 4.6 °C 4.2 °C 1014.1 hPa SSE 5.0 km/h 16.9 km/h 97 % 0.5 mm
05:52 4.6 °C 4.2 °C 1013.1 hPa South 10.1 km/h 17.2 km/h 97 % 0.5 mm
05:57 4.6 °C 4.2 °C 1013.1 hPa SSE 10.1 km/h 17.2 km/h 97 % 0.3 mm
06:02 4.7 °C 4.4 °C 1013.1 hPa South 12.2 km/h 18.0 km/h 98 % 0.3 mm
06:07 4.7 °C 4.4 °C 1013.1 hPa SSE 6.1 km/h 19.8 km/h 98 % 0.3 mm
06:13 4.7 °C 4.3 °C 1013.1 hPa SSE 8.7 km/h 23.3 km/h 97 % 0.3 mm
06:18 4.7 °C 4.3 °C 1013.1 hPa South 5.0 km/h 23.3 km/h 97 % 0.3 mm
06:23 4.7 °C 4.3 °C 1013.1 hPa SE 11.9 km/h 17.7 km/h 97 % 0.0 mm
06:28 4.7 °C 4.3 °C 1013.1 hPa SSE 9.0 km/h 19.8 km/h 97 % 0.0 mm
06:33 4.7 °C 4.3 °C 1013.1 hPa SSE 9.0 km/h 19.8 km/h 97 % 0.0 mm
06:38 4.7 °C 4.3 °C 1013.1 hPa South 5.8 km/h 16.9 km/h 97 % 0.0 mm
06:43 4.7 °C 4.3 °C 1013.1 hPa SSE 10.5 km/h 16.3 km/h 97 % 0.0 mm
06:48 4.7 °C 4.3 °C 1013.1 hPa SE 10.5 km/h 20.6 km/h 97 % 0.0 mm
06:53 4.7 °C 4.3 °C 1013.1 hPa SE 16.6 km/h 20.6 km/h 97 % 0.0 mm
06:58 4.7 °C 4.3 °C 1013.1 hPa SE 12.6 km/h 20.6 km/h 97 % 0.0 mm
07:03 4.7 °C 4.3 °C 1013.1 hPa SSE 10.1 km/h 20.6 km/h 97 % 0.0 mm
07:08 4.7 °C 4.3 °C 1012.1 hPa SE 10.1 km/h 17.2 km/h 97 % 0.0 mm
07:12 4.7 °C 4.3 °C 1012.1 hPa ESE 13.0 km/h 17.7 km/h 97 % 0.0 mm
07:18 4.7 °C 4.3 °C 1012.1 hPa SSE 6.4 km/h 19.5 km/h 97 % 0.0 mm
07:22 4.8 °C 4.4 °C 1013.1 hPa SE 6.9 km/h 19.5 km/h 97 % 0.0 mm
07:27 4.8 °C 4.4 °C 1013.1 hPa South 9.3 km/h 16.6 km/h 97 % 0.0 mm
07:32 4.8 °C 4.4 °C 1013.1 hPa SSE 8.7 km/h 14.0 km/h 97 % 0.0 mm
07:37 4.8 °C 4.4 °C 1013.1 hPa SSE 10.5 km/h 15.4 km/h 97 % 0.0 mm
07:42 4.9 °C 4.4 °C 1013.1 hPa SSE 5.5 km/h 15.4 km/h 97 % 0.0 mm
07:47 4.9 °C 4.4 °C 1013.1 hPa SSE 10.8 km/h 14.0 km/h 97 % 0.0 mm
07:52 4.9 °C 4.4 °C 1013.1 hPa SSE 12.6 km/h 13.7 km/h 97 % 0.0 mm
07:57 4.9 °C 4.4 °C 1013.1 hPa SSE 10.5 km/h 16.9 km/h 97 % 0.0 mm
08:02 4.9 °C 4.4 °C 1013.1 hPa SE 14.0 km/h 16.9 km/h 97 % 0.0 mm
08:07 4.9 °C 4.4 °C 1012.1 hPa SSE 5.8 km/h 16.9 km/h 97 % 0.0 mm
08:12 5.0 °C 4.4 °C 1012.1 hPa SSE 7.9 km/h 15.8 km/h 96 % 0.0 mm
08:17 5.0 °C 4.4 °C 1012.1 hPa SSE 7.6 km/h 17.2 km/h 96 % 0.0 mm
08:22 5.0 °C 4.4 °C 1013.1 hPa SSE 8.7 km/h 17.2 km/h 96 % 0.0 mm
08:27 5.0 °C 4.4 °C 1013.1 hPa SSW 7.9 km/h 15.8 km/h 96 % 0.0 mm
08:32 5.0 °C 4.4 °C 1013.1 hPa SSE 7.9 km/h 12.6 km/h 96 % 0.0 mm
08:37 5.0 °C 4.4 °C 1013.1 hPa SSE 11.6 km/h 13.7 km/h 96 % 0.0 mm
08:42 5.0 °C 4.4 °C 1013.1 hPa South 9.7 km/h 16.6 km/h 96 % 0.0 mm
08:47 5.0 °C 4.4 °C 1013.1 hPa SSE 7.9 km/h 16.6 km/h 96 % 0.0 mm
08:52 5.0 °C 4.4 °C 1013.1 hPa SSE 6.1 km/h 16.3 km/h 96 % 0.0 mm
08:57 5.0 °C 4.6 °C 1013.1 hPa SSE 9.3 km/h 16.9 km/h 97 % 0.0 mm
09:02 4.9 °C 4.4 °C 1013.1 hPa South 7.9 km/h 16.9 km/h 97 % 0.0 mm
09:07 5.0 °C 4.6 °C 1013.1 hPa SE 9.0 km/h 16.9 km/h 97 % 0.0 mm
09:12 5.0 °C 4.6 °C 1013.1 hPa South 10.5 km/h 17.7 km/h 97 % 0.0 mm
09:17 5.0 °C 4.6 °C 1013.1 hPa SSE 16.3 km/h 19.8 km/h 97 % 0.0 mm
09:22 5.0 °C 4.6 °C 1012.1 hPa South 10.5 km/h 19.8 km/h 97 % 0.0 mm
09:27 5.0 °C 4.6 °C 1012.1 hPa South 15.8 km/h 17.7 km/h 97 % 0.0 mm
09:32 5.0 °C 4.6 °C 1012.1 hPa SE 10.5 km/h 17.7 km/h 97 % 0.0 mm
09:37 5.0 °C 4.6 °C 1012.1 hPa SSE 11.9 km/h 19.8 km/h 97 % 0.0 mm
09:42 5.0 °C 4.6 °C 1012.1 hPa South 12.6 km/h 19.8 km/h 97 % 0.0 mm
09:47 5.1 °C 4.7 °C 1012.1 hPa SSE 13.7 km/h 15.8 km/h 97 % 0.0 mm
09:52 5.1 °C 4.7 °C 1013.1 hPa SSE 10.1 km/h 17.2 km/h 97 % 0.0 mm
09:57 5.1 °C 4.7 °C 1013.1 hPa South 5.0 km/h 17.2 km/h 97 % 0.0 mm
10:02 5.1 °C 4.7 °C 1013.1 hPa South 5.8 km/h 17.2 km/h 97 % 0.0 mm
10:07 5.1 °C 4.7 °C 1013.1 hPa SE 6.4 km/h 13.0 km/h 97 % 0.0 mm
10:12 5.1 °C 4.7 °C 1013.1 hPa SSE 6.1 km/h 15.8 km/h 97 % 0.0 mm
10:17 5.1 °C 4.7 °C 1013.1 hPa SE 8.7 km/h 16.6 km/h 97 % 0.0 mm
10:23 5.2 °C 4.8 °C 1012.1 hPa South 7.9 km/h 16.6 km/h 97 % 0.0 mm
10:28 5.2 °C 4.8 °C 1012.1 hPa SSE 9.0 km/h 16.6 km/h 97 % 0.0 mm
10:33 5.2 °C 4.9 °C 1012.1 hPa South 6.9 km/h 16.6 km/h 98 % 0.0 mm
10:38 5.2 °C 4.9 °C 1012.1 hPa SSE 8.7 km/h 17.2 km/h 98 % 0.0 mm
10:43 5.2 °C 4.9 °C 1012.1 hPa SSE 5.8 km/h 17.2 km/h 98 % 0.0 mm
10:48 5.3 °C 5.0 °C 1012.1 hPa SSE 5.8 km/h 13.0 km/h 98 % 0.0 mm
10:53 5.3 °C 5.0 °C 1012.1 hPa SSE 7.6 km/h 11.9 km/h 98 % 0.3 mm
10:58 5.3 °C 5.0 °C 1012.1 hPa SE 5.5 km/h 15.4 km/h 98 % 0.3 mm
11:03 5.3 °C 5.0 °C 1012.1 hPa SSE 6.4 km/h 15.4 km/h 98 % 0.3 mm
11:08 5.3 °C 5.0 °C 1012.1 hPa SSE 6.1 km/h 11.6 km/h 98 % 0.3 mm
11:10 5.4 °C 5.1 °C 1012.1 hPa SSE 4.3 km/h 11.6 km/h 98 % 0.3 mm
11:15 5.4 °C 5.1 °C 1012.1 hPa SE 4.3 km/h 13.0 km/h 98 % 0.3 mm
11:20 5.5 °C 5.2 °C 1012.1 hPa SSE 5.0 km/h 13.0 km/h 98 % 0.3 mm
11:25 5.5 °C 5.2 °C 1013.1 hPa Calm   15.1 km/h 98 % 0.3 mm
11:30 5.5 °C 5.2 °C 1013.1 hPa SSE 11.6 km/h 15.1 km/h 98 % 0.3 mm
11:35 5.6 °C 5.3 °C 1013.1 hPa South 6.9 km/h 14.0 km/h 98 % 0.3 mm
11:40 5.6 °C 5.3 °C 1013.1 hPa South 10.1 km/h 14.0 km/h 98 % 0.3 mm
11:45 5.6 °C 5.3 °C 1013.1 hPa SSW 6.4 km/h 14.0 km/h 98 % 0.3 mm
11:50 5.7 °C 5.4 °C 1013.1 hPa SE 5.0 km/h 14.0 km/h 98 % 0.3 mm
11:55 5.7 °C 5.4 °C 1013.1 hPa South 8.7 km/h 16.9 km/h 98 % 0.0 mm
12:00 5.8 °C 5.5 °C 1013.1 hPa South 5.5 km/h 16.9 km/h 98 % 0.0 mm
12:01 5.8 °C 5.5 °C 1013.1 hPa SSW 5.0 km/h 16.9 km/h 98 % 0.0 mm
12:06 5.9 °C 5.6 °C 1013.1 hPa SSE 6.4 km/h 10.1 km/h 98 % 0.0 mm
12:11 6.0 °C 5.7 °C 1013.1 hPa South 6.1 km/h 11.6 km/h 98 % 0.0 mm
12:16 6.0 °C 5.7 °C 1013.1 hPa South 5.0 km/h 11.6 km/h 98 % 0.0 mm
12:21 6.0 °C 5.7 °C 1013.1 hPa SSE 6.1 km/h 17.2 km/h 98 % 0.0 mm
12:26 6.0 °C 5.7 °C 1013.1 hPa SSW 7.9 km/h 17.2 km/h 98 % 0.0 mm
12:31 6.0 °C 5.7 °C 1013.1 hPa SSW 8.7 km/h 15.4 km/h 98 % 0.0 mm
12:36 6.1 °C 5.8 °C 1013.1 hPa South 8.7 km/h 8.7 km/h 98 % 0.0 mm
12:41 6.1 °C 5.8 °C 1013.1 hPa South 9.0 km/h 10.5 km/h 98 % 0.0 mm
12:46 6.1 °C 5.8 °C 1013.1 hPa South 6.9 km/h 10.5 km/h 98 % 0.0 mm
12:51 6.2 °C 5.9 °C 1013.1 hPa South 6.1 km/h 10.5 km/h 98 % 0.0 mm
12:56 6.3 °C 6.0 °C 1012.1 hPa South 6.9 km/h 10.5 km/h 98 % 0.0 mm
13:01 6.4 °C 6.1 °C 1012.1 hPa South 5.0 km/h 10.5 km/h 98 % 0.0 mm
13:06 6.4 °C 6.1 °C 1012.1 hPa South 5.8 km/h 9.3 km/h 98 % 0.0 mm
13:11 6.4 °C 6.1 °C 1012.1 hPa South 8.7 km/h 8.7 km/h 98 % 0.0 mm
13:16 6.4 °C 6.1 °C 1012.1 hPa SSE 5.5 km/h 9.3 km/h 98 % 0.0 mm
13:21 6.4 °C 6.1 °C 1012.1 hPa SSE 6.9 km/h 9.7 km/h 98 % 0.0 mm
13:26 6.4 °C 6.1 °C 1013.1 hPa SSW 10.1 km/h 16.6 km/h 98 % 0.0 mm
13:31 6.4 °C 6.1 °C 1013.1 hPa SSW 4.7 km/h 16.6 km/h 98 % 0.0 mm
13:36 6.4 °C 6.1 °C 1013.1 hPa South 4.7 km/h 10.5 km/h 98 % 0.0 mm
13:41 6.4 °C 6.1 °C 1012.1 hPa SSE 5.8 km/h 10.1 km/h 98 % 0.0 mm
13:46 6.4 °C 6.1 °C 1012.1 hPa South 3.2 km/h 10.1 km/h 98 % 0.0 mm
13:56 6.4 °C 6.1 °C 1013.1 hPa SW 1.4 km/h 9.3 km/h 98 % 0.0 mm
14:01 6.4 °C 6.2 °C 1013.1 hPa Calm   9.3 km/h 98 % 0.0 mm
14:06 6.4 °C 6.2 °C 1013.1 hPa South 7.6 km/h 7.6 km/h 98 % 0.0 mm
14:11 6.6 °C 6.3 °C 1013.1 hPa Calm   8.7 km/h 98 % 0.0 mm
14:16 6.7 °C 6.4 °C 1013.1 hPa South 3.5 km/h 8.7 km/h 98 % 0.0 mm
14:21 6.7 °C 6.4 °C 1013.1 hPa SSW 4.0 km/h 6.4 km/h 98 % 0.0 mm
14:26 6.7 °C 6.4 °C 1013.1 hPa Calm   5.5 km/h 98 % 0.0 mm
14:31 6.8 °C 6.4 °C 1013.1 hPa SSW 6.4 km/h 6.4 km/h 98 % 0.0 mm
14:36 6.8 °C 6.4 °C 1013.1 hPa Calm   6.4 km/h 98 % 0.0 mm
14:41 6.8 °C 6.6 °C 1013.1 hPa Calm   6.4 km/h 98 % 0.0 mm
14:46 6.9 °C 6.7 °C 1013.1 hPa SSW 4.3 km/h 5.0 km/h 98 % 0.0 mm
14:51 7.1 °C 6.8 °C 1013.1 hPa WSW 4.0 km/h 5.5 km/h 98 % 0.0 mm
14:56 7.1 °C 6.8 °C 1013.1 hPa Calm   5.5 km/h 98 % 0.0 mm
15:01 7.2 °C 6.8 °C 1013.1 hPa Calm   5.5 km/h 98 % 0.0 mm
15:06 7.2 °C 6.8 °C 1013.1 hPa SSW 4.0 km/h 5.8 km/h 98 % 0.0 mm
15:11 7.3 °C 6.9 °C 1013.1 hPa SW 5.5 km/h 6.9 km/h 98 % 0.0 mm
15:16 7.3 °C 6.9 °C 1013.1 hPa Calm   6.9 km/h 98 % 0.0 mm
15:18 7.3 °C 6.9 °C 1013.1 hPa Calm   6.9 km/h 98 % 0.0 mm
15:23 7.3 °C 7.1 °C 1013.1 hPa Calm   1.8 km/h 98 % 0.0 mm
15:28 7.3 °C 7.1 °C 1013.1 hPa SW 5.0 km/h 5.0 km/h 98 % 0.0 mm
15:33 7.3 °C 7.1 °C 1013.1 hPa Calm   5.0 km/h 98 % 0.0 mm
15:38 7.3 °C 7.1 °C 1013.1 hPa Calm   5.0 km/h 98 % 0.0 mm
15:43 7.3 °C 7.1 °C 1013.1 hPa Calm   7.9 km/h 98 % 0.0 mm
15:48 7.3 °C 7.1 °C 1013.1 hPa Calm   7.9 km/h 98 % 0.0 mm
15:53 7.3 °C 7.1 °C 1013.1 hPa West 1.4 km/h 5.5 km/h 98 % 0.0 mm
15:58 7.3 °C 7.1 °C 1013.1 hPa Calm   6.9 km/h 98 % 0.0 mm
16:03 7.3 °C 7.1 °C 1013.1 hPa Calm   6.9 km/h 98 % 0.0 mm
16:08 7.4 °C 7.2 °C 1013.1 hPa WNW 3.5 km/h 5.8 km/h 98 % 0.0 mm
16:13 7.4 °C 7.2 °C 1013.1 hPa West 5.5 km/h 6.1 km/h 98 % 0.0 mm
16:18 7.4 °C 7.2 °C 1013.1 hPa West 6.4 km/h 8.7 km/h 98 % 0.0 mm
16:23 7.4 °C 7.2 °C 1013.1 hPa Calm   8.7 km/h 98 % 0.0 mm
16:28 7.4 °C 7.2 °C 1013.1 hPa Calm   6.9 km/h 98 % 0.0 mm
16:33 7.4 °C 7.2 °C 1013.1 hPa Calm   4.3 km/h 98 % 0.0 mm
16:38 7.4 °C 7.2 °C 1014.1 hPa Calm   4.7 km/h 98 % 0.0 mm
16:43 7.4 °C 7.2 °C 1014.1 hPa Calm   4.7 km/h 98 % 0.0 mm
16:48 7.4 °C 7.2 °C 1014.1 hPa Calm     98 % 0.0 mm
16:53 7.4 °C 7.2 °C 1014.1 hPa Calm     98 % 0.0 mm
16:58 7.4 °C 7.2 °C 1014.1 hPa Calm     98 % 0.0 mm
17:03 7.4 °C 7.2 °C 1014.1 hPa Calm     98 % 0.0 mm
17:08 7.4 °C 7.2 °C 1014.1 hPa Calm     98 % 0.0 mm
17:13 7.4 °C 7.2 °C 1014.1 hPa Calm     98 % 0.0 mm
17:18 7.4 °C 7.2 °C 1014.1 hPa Calm     98 % 0.0 mm
17:23 7.3 °C 7.1 °C 1014.1 hPa Calm     98 % 0.0 mm
17:28 7.3 °C 7.1 °C 1014.1 hPa Calm     98 % 0.0 mm
17:33 7.3 °C 7.1 °C 1014.1 hPa Calm     98 % 0.0 mm
17:38 7.3 °C 7.1 °C 1014.1 hPa Calm     98 % 0.0 mm
17:43 7.3 °C 7.1 °C 1014.1 hPa Calm     98 % 0.0 mm
17:48 7.3 °C 7.1 °C 1014.1 hPa Calm     98 % 0.0 mm
17:53 7.3 °C 6.9 °C 1014.1 hPa Calm     98 % 0.0 mm
17:58 7.3 °C 6.9 °C 1014.1 hPa Calm     98 % 0.0 mm
18:03 7.3 °C 6.9 °C 1014.1 hPa Calm     98 % 0.0 mm
18:08 7.3 °C 6.9 °C 1014.1 hPa Calm     98 % 0.0 mm
18:13 7.3 °C 6.9 °C 1014.1 hPa Calm     98 % 0.0 mm
18:18 7.3 °C 6.9 °C 1014.1 hPa Calm     98 % 0.3 mm
18:23 7.3 °C 6.9 °C 1015.1 hPa Calm   3.2 km/h 98 % 0.3 mm
18:28 7.3 °C 6.9 °C 1015.1 hPa West 5.0 km/h 6.9 km/h 98 % 0.3 mm
18:33 7.3 °C 7.1 °C 1015.1 hPa West 5.0 km/h 6.9 km/h 98 % 0.3 mm
18:38 7.3 °C 7.1 °C 1015.1 hPa Calm   5.0 km/h 98 % 0.3 mm
18:43 7.3 °C 7.1 °C 1015.1 hPa SW 2.1 km/h 9.0 km/h 98 % 0.3 mm
18:48 7.3 °C 7.1 °C 1015.1 hPa WNW 5.5 km/h 9.0 km/h 98 % 0.3 mm
18:53 7.3 °C 7.1 °C 1015.1 hPa NW 4.0 km/h 6.9 km/h 98 % 0.3 mm
18:58 7.3 °C 6.9 °C 1015.1 hPa NNW 5.0 km/h 9.7 km/h 98 % 0.3 mm
19:03 7.3 °C 6.9 °C 1015.1 hPa West 5.8 km/h 11.9 km/h 98 % 0.3 mm
19:08 7.3 °C 6.9 °C 1015.1 hPa WNW 4.7 km/h 11.9 km/h 98 % 0.3 mm
19:13 7.3 °C 6.9 °C 1015.1 hPa NW 2.6 km/h 11.6 km/h 98 % 0.3 mm
19:18 7.3 °C 6.9 °C 1015.1 hPa WNW 1.8 km/h 9.3 km/h 98 % 0.0 mm
19:23 7.3 °C 6.9 °C 1015.1 hPa WNW 6.4 km/h 6.9 km/h 98 % 0.0 mm
19:28 7.2 °C 6.8 °C 1015.1 hPa North 1.4 km/h 8.7 km/h 98 % 0.0 mm
19:33 7.2 °C 6.8 °C 1015.1 hPa West 4.7 km/h 9.7 km/h 98 % 0.0 mm
19:38 7.3 °C 6.9 °C 1015.1 hPa WNW 10.1 km/h 12.6 km/h 98 % 0.0 mm
19:43 7.3 °C 6.9 °C 1015.1 hPa West 5.8 km/h 12.6 km/h 98 % 0.0 mm
19:48 7.3 °C 6.9 °C 1015.1 hPa WNW 4.7 km/h 13.7 km/h 98 % 0.0 mm
19:53 7.2 °C 6.8 °C 1015.1 hPa SSW 13.7 km/h 15.4 km/h 98 % 0.0 mm
19:58 7.2 °C 6.8 °C 1015.1 hPa West 6.9 km/h 15.4 km/h 98 % 0.0 mm
20:03 7.2 °C 6.8 °C 1015.1 hPa WNW 6.1 km/h 14.0 km/h 98 % 0.0 mm
20:08 7.2 °C 6.8 °C 1015.1 hPa WNW 9.7 km/h 12.2 km/h 98 % 0.0 mm
20:13 7.1 °C 6.8 °C 1015.1 hPa NNW 5.5 km/h 12.2 km/h 98 % 0.0 mm
20:18 7.1 °C 6.8 °C 1015.1 hPa Calm   10.5 km/h 98 % 0.0 mm
20:23 6.9 °C 6.7 °C 1015.1 hPa WNW 4.3 km/h 10.5 km/h 98 % 0.0 mm
20:28 6.9 °C 6.7 °C 1015.1 hPa WNW 4.3 km/h 10.1 km/h 98 % 0.0 mm
20:33 6.9 °C 6.7 °C 1015.1 hPa West 5.5 km/h 10.1 km/h 98 % 0.0 mm
20:38 6.9 °C 6.7 °C 1015.1 hPa NW 3.2 km/h 9.3 km/h 98 % 0.0 mm
20:43 6.8 °C 6.4 °C 1015.1 hPa NW 6.4 km/h 9.3 km/h 97 % 0.0 mm
20:48 6.8 °C 6.4 °C 1015.1 hPa NW 4.0 km/h 11.1 km/h 97 % 0.0 mm
20:53 6.8 °C 6.4 °C 1014.1 hPa NNW 4.0 km/h 11.1 km/h 97 % 0.0 mm
20:58 6.8 °C 6.4 °C 1014.1 hPa Calm   11.6 km/h 97 % 0.0 mm
21:03 6.8 °C 6.6 °C 1014.1 hPa Calm   11.6 km/h 98 % 0.0 mm
21:08 6.8 °C 6.6 °C 1015.1 hPa NNW 5.0 km/h 9.3 km/h 98 % 0.0 mm
21:13 6.9 °C 6.7 °C 1015.1 hPa NNW 4.3 km/h 9.0 km/h 98 % 0.0 mm
21:18 6.9 °C 6.7 °C 1015.1 hPa Calm   9.0 km/h 98 % 0.0 mm
21:23 6.9 °C 6.7 °C 1014.1 hPa West 5.0 km/h 6.9 km/h 98 % 0.0 mm
21:28 6.9 °C 6.7 °C 1014.1 hPa NW 5.5 km/h 8.7 km/h 98 % 0.0 mm
21:33 6.8 °C 6.6 °C 1014.1 hPa North 4.3 km/h 8.7 km/h 98 % 0.0 mm
21:38 6.8 °C 6.6 °C 1015.1 hPa WNW 6.4 km/h 9.7 km/h 98 % 0.0 mm
21:43 6.8 °C 6.6 °C 1015.1 hPa NNW 5.0 km/h 9.7 km/h 98 % 0.0 mm
21:48 6.8 °C 6.6 °C 1015.1 hPa NNW 6.4 km/h 9.3 km/h 98 % 0.0 mm
21:53 6.8 °C 6.4 °C 1015.1 hPa WNW 4.0 km/h 9.7 km/h 98 % 0.0 mm
21:58 6.7 °C 6.4 °C 1015.1 hPa NW 3.2 km/h 9.7 km/h 98 % 0.0 mm
22:03 6.7 °C 6.4 °C 1015.1 hPa NNW 5.0 km/h 9.0 km/h 98 % 0.0 mm
22:08 6.7 °C 6.4 °C 1015.1 hPa North 3.5 km/h 7.6 km/h 98 % 0.0 mm
22:13 6.6 °C 6.3 °C 1015.1 hPa North 5.0 km/h 6.4 km/h 98 % 0.0 mm
22:18 6.6 °C 6.3 °C 1015.1 hPa Calm   6.4 km/h 98 % 0.0 mm
22:23 6.4 °C 6.2 °C 1016.1 hPa NW 4.3 km/h 5.5 km/h 98 % 0.0 mm
22:28 6.4 °C 6.2 °C 1016.1 hPa WNW 6.4 km/h 9.3 km/h 98 % 0.0 mm
22:33 6.4 °C 6.2 °C 1016.1 hPa WNW 2.6 km/h 9.7 km/h 98 % 0.0 mm
22:38 6.4 °C 6.2 °C 1016.1 hPa North 5.0 km/h 9.7 km/h 98 % 0.0 mm
22:43 6.4 °C 6.1 °C 1016.1 hPa Calm   9.7 km/h 98 % 0.0 mm
22:48 6.4 °C 6.1 °C 1016.1 hPa Calm   9.7 km/h 98 % 0.0 mm
22:53 6.4 °C 6.1 °C 1015.1 hPa North 3.5 km/h 7.6 km/h 98 % 0.0 mm
22:54 6.4 °C 6.1 °C 1015.1 hPa WNW 4.7 km/h 7.6 km/h 98 % 0.0 mm
22:59 6.4 °C 6.1 °C 1015.1 hPa Calm   12.2 km/h 98 % 0.0 mm
23:04 6.4 °C 6.1 °C 1015.1 hPa Calm   12.2 km/h 98 % 0.0 mm
23:09 6.4 °C 6.1 °C 1016.1 hPa WNW 2.6 km/h 11.9 km/h 98 % 0.0 mm
23:14 6.4 °C 6.1 °C 1016.1 hPa NNW 5.0 km/h 9.0 km/h 98 % 0.0 mm
23:19 6.3 °C 6.0 °C 1016.1 hPa NNW 4.3 km/h 7.2 km/h 98 % 0.0 mm
23:24 6.3 °C 6.0 °C 1016.1 hPa North 3.2 km/h 6.9 km/h 98 % 0.0 mm
23:29 6.3 °C 6.0 °C 1016.1 hPa North 5.0 km/h 8.7 km/h 98 % 0.0 mm
23:34 6.3 °C 6.0 °C 1016.1 hPa NNW 2.6 km/h 8.7 km/h 98 % 0.0 mm
23:39 6.3 °C 6.0 °C 1016.1 hPa NNE 4.0 km/h 5.5 km/h 98 % 0.0 mm
23:44 6.3 °C 6.0 °C 1016.1 hPa North 6.1 km/h 7.6 km/h 98 % 0.0 mm
23:47 6.2 °C 5.9 °C 1016.1 hPa Calm   7.6 km/h 98 % 0.3 mm
23:52 6.2 °C 5.9 °C 1016.8 hPa Calm   9.7 km/h 98 % 0.3 mm
23:55 6.2 °C 5.9 °C 1016.8 hPa Calm   9.7 km/h 98 % 0.3 mm
Le Gheer Warneton
Courtoisie de Weather Underground - 2.25 mb

Mise a jour : 18/12/2017 21:33:12
Généré par Cumulus 1.9.4 (1099)